Location: Podia
(1.5569°N, 32.3469°E)
Time: 04:02:05
(UTC+00:00)

Vanguard 1 - Visible Passes

Search period start: 21 September 2020 00:00
Search period end: 01 October 2020 00:00
Orbit: 650 x 3832 km, 34.2° (Epoch: 20 September)

Date Brightness Start Highest point End Pass type
(mag) Time Alt. Az. Time Alt. Az. Time Alt. Az.
21 Sep 12.6 03:11:36 10° NNW 03:20:05 37° NE 03:34:38 10° ESE visible
21 Sep 10.8 17:59:03 10° WSW 18:08:31 52° NW 18:08:34 52° NW visible
22 Sep 11.4 15:54:07 10° SW 16:08:03 54° SSE 16:15:31 10° ENE visible
22 Sep 11.6 18:21:17 10° WSW 18:28:44 32° NW 18:28:44 32° NW visible
23 Sep 12.7 01:36:24 10° N 01:40:24 14° NE 01:45:29 10° ENE visible
23 Sep 11.0 16:15:24 10° SW 16:29:21 75° SE 16:36:10 12° ENE visible
23 Sep 12.3 18:44:13 10° W 18:48:55 19° NW 18:48:55 19° NW visible
24 Sep 12.5 01:55:31 10° N 02:01:20 22° NE 02:10:03 10° E visible
24 Sep 11.0 16:36:59 10° WSW 16:50:23 78° NW 16:56:20 16° NE visible
24 Sep 12.9 19:08:56 10° NW 19:09:04 10° NW 19:09:04 10° NW visible
25 Sep 12.4 02:15:19 10° NNW 02:22:07 33° NE 02:33:29 10° ESE visible
25 Sep 11.4 16:58:57 10° WSW 17:11:12 54° NW 17:16:28 19° NNE visible
26 Sep 11.9 02:35:29 10° NNW 02:42:50 48° NE 02:56:14 10° ESE visible
26 Sep 11.9 17:21:23 10° WSW 17:31:53 36° NW 17:36:36 18° NNE visible
27 Sep 12.7 00:41:56 10° NNE 00:43:03 10° NE 00:44:15 10° NE visible
27 Sep 11.5 02:55:55 10° NW 03:03:38 69° NE 03:18:26 10° ESE visible
27 Sep 12.2 17:44:28 10° W 17:52:35 23° NW 17:56:41 15° N visible
28 Sep 12.2 01:01:57 16° NNE 01:03:56 18° NE 01:09:50 10° E visible
28 Sep 11.4 03:16:36 10° NW 03:24:36 87° SW 03:40:14 10° SE visible
28 Sep 12.5 18:08:37 10° WNW 18:13:25 14° NW 18:16:44 11° NNW visible
29 Sep 11.7 01:22:08 24° N 01:24:38 29° NE 01:33:09 10° E visible
29 Sep 12.0 15:57:58 10° WSW 16:13:23 56° NW 16:21:38 10° NE visible
30 Sep 11.3 01:42:19 30° N 01:45:17 45° NE 01:55:42 10° ESE visible
30 Sep 12.4 16:20:36 10° WSW 16:34:10 40° NW 16:41:55 10° NNE visible
